Weather History for Mount Sterling, KY

Change the Weather History Date:

Wednesday, January 1, 2014

  Actual Average Record
Temperature  
Mean Temperature 37 °F -  
Max Temperature 46 °F 43 °F 46 °F (2014)
Min Temperature 28 °F 25 °F 28 °F (2014)
Degree Days  
Heating Degree Days 28    
Moisture  
Dew Point 25 °F    
Average Humidity 64    
Maximum Humidity 87    
Minimum Humidity 40    
Precipitation  
Precipitation 0.00 in - - ()
Sea Level Pressure  
Sea Level Pressure 30.20 in    
Wind  
Wind Speed 7 mph (SW)    
Max Wind Speed 13 mph    
Max Gust Speed 18 mph    
Visibility 10 miles    
Events      
Averages and records for this station are not official NWS values.
T = Trace of Precipitation, MM = Missing Value Source: NWS Daily Summary

Daily Weather History Graph

Daily Weather History Graph

Search for Another Location

Airport:

Trip Planner

Search our weather history database for the weather conditions in past years. The results will help you decide how hot, cold, wet, or windy it might be!

Date:

Astronomy

Jan. 01, 2014 Rise Set
Actual Time 7:52 AM EST 5:27 PM EST
Civil Twilight 7:22 AM EST 5:56 PM EST
Nautical Twilight 6:49 AM EST 6:29 PM EST
Astronomical Twilight 6:17 AM EST 7:01 PM EST
Moon 7:42 AM EST (1/1) 6:09 PM EST (1/1)
Length of Visible Light 10h 33m
Length of Day
9h 34m
New Moon, 0% of the Moon is Illuminated
Jan 1
New Moon
Jan 7
First Quarter
Jan 15
Full
Jan 24
Last Quarter
Jan 30
New

Hourly Weather History & Observations

Time (EST) Temp. Windchill Dew Point Humidity Pressure Visibility Wind Dir Wind Speed Gust Speed Precip Events Conditions
12:15 AM 28.4 °F 21.2 °F 21.2 °F 74% 30.30 in 10.0 mi WSW 6.9 mph - N/A   Clear
12:35 AM 30.2 °F 23.4 °F 21.2 °F 69% 30.30 in 10.0 mi WSW 6.9 mph - N/A   Clear
12:55 AM 28.4 °F 21.2 °F 23.0 °F 80% 30.30 in 10.0 mi WSW 6.9 mph - N/A   Clear
1:15 AM 30.2 °F 23.4 °F 23.0 °F 75% 30.30 in 10.0 mi WSW 6.9 mph - N/A   Clear
1:35 AM 30.2 °F 23.4 °F 23.0 °F 75% 30.30 in 10.0 mi WSW 6.9 mph - N/A   Clear
1:55 AM 32.0 °F 26.4 °F 23.0 °F 69% 30.30 in 10.0 mi WSW 5.8 mph - N/A   Clear
2:15 AM 32.0 °F 27.5 °F 23.0 °F 69% 30.30 in 10.0 mi WSW 4.6 mph - N/A   Clear
2:35 AM 32.0 °F 27.5 °F 23.0 °F 69% 30.30 in 10.0 mi West 4.6 mph - N/A   Clear
2:55 AM 32.0 °F 26.4 °F 23.0 °F 69% 30.31 in 10.0 mi WSW 5.8 mph - N/A   Clear
3:15 AM 32.0 °F 25.6 °F 23.0 °F 69% 30.31 in 10.0 mi WSW 6.9 mph - N/A   Clear
3:35 AM 32.0 °F 27.5 °F 23.0 °F 69% 30.31 in 10.0 mi WSW 4.6 mph - N/A   Clear
3:55 AM 30.2 °F 24.3 °F 23.0 °F 75% 30.30 in 10.0 mi SW 5.8 mph - N/A   Clear
4:15 AM 30.2 °F 22.6 °F 23.0 °F 75% 30.30 in 10.0 mi SW 8.1 mph - N/A   Clear
4:35 AM 30.2 °F 22.6 °F 23.0 °F 75% 30.30 in 10.0 mi SW 8.1 mph - N/A   Clear
4:55 AM 30.2 °F 22.6 °F 23.0 °F 75% 30.30 in 10.0 mi SW 8.1 mph - N/A   Clear
5:15 AM 30.2 °F 22.6 °F 23.0 °F 75% 30.30 in 10.0 mi SW 8.1 mph - N/A   Clear
5:35 AM 30.2 °F 22.6 °F 23.0 °F 75% 30.30 in 10.0 mi SW 8.1 mph - N/A   Clear
5:55 AM 30.2 °F 23.4 °F 23.0 °F 75% 30.29 in 10.0 mi SW 6.9 mph - N/A   Clear
6:15 AM 30.2 °F 24.3 °F 23.0 °F 75% 30.29 in 10.0 mi SW 5.8 mph - N/A   Clear
6:35 AM 30.2 °F 23.4 °F 23.0 °F 75% 30.29 in 10.0 mi SW 6.9 mph - N/A   Clear
6:55 AM 30.2 °F 23.4 °F 23.0 °F 75% 30.29 in 10.0 mi SW 6.9 mph - N/A   Clear
7:15 AM 30.2 °F 22.6 °F 23.0 °F 75% 30.28 in 10.0 mi SW 8.1 mph - N/A   Clear
7:35 AM 30.2 °F 22.6 °F 24.8 °F 80% 30.28 in 10.0 mi SW 8.1 mph - N/A   Clear
7:55 AM 32.0 °F 25.6 °F 24.8 °F 75% 30.29 in 10.0 mi SW 6.9 mph - N/A   Clear
8:15 AM 32.0 °F 25.6 °F 24.8 °F 75% 30.29 in 10.0 mi SW 6.9 mph - N/A   Clear
8:35 AM 32.0 °F 26.4 °F 24.8 °F 75% 30.28 in 10.0 mi SW 5.8 mph - N/A   Clear
8:55 AM 32.0 °F 26.4 °F 24.8 °F 75% 30.29 in 10.0 mi SW 5.8 mph - N/A   Clear
9:15 AM 33.8 °F 28.6 °F 26.6 °F 75% 30.29 in 10.0 mi SW 5.8 mph - N/A   Clear
9:35 AM 35.6 °F 30.7 °F 26.6 °F 70% 30.29 in 10.0 mi SW 5.8 mph - N/A   Clear
9:55 AM 35.6 °F 29.9 °F 26.6 °F 70% 30.29 in 10.0 mi SW 6.9 mph - N/A   Clear
10:15 AM 35.6 °F 29.2 °F 26.6 °F 70% 30.29 in 10.0 mi SSW 8.1 mph - N/A   Clear
10:35 AM 37.4 °F 31.4 °F 28.4 °F 70% 30.29 in 10.0 mi WSW 8.1 mph - N/A   Clear
10:55 AM 37.4 °F 30.8 °F 26.6 °F 65% 30.27 in 10.0 mi WSW 9.2 mph - N/A   Clear
11:15 AM 41.0 °F 33.9 °F 26.6 °F 57% 30.26 in 10.0 mi WSW 12.7 mph - N/A   Clear
11:35 AM 41.0 °F 35.2 °F 26.6 °F 57% 30.25 in 10.0 mi WSW 9.2 mph 18.4 mph N/A   Clear
11:55 AM 41.0 °F 33.9 °F 26.6 °F 57% 30.25 in 10.0 mi SW 12.7 mph 16.1 mph N/A   Clear
12:15 PM 42.8 °F 36.6 °F 28.4 °F 57% 30.23 in 10.0 mi SW 11.5 mph - N/A   Clear
12:35 PM 42.8 °F 38.0 °F 28.4 °F 57% 30.21 in 10.0 mi SW 8.1 mph - N/A   Clear
12:55 PM 42.8 °F 37.5 °F 26.6 °F 53% 30.20 in 10.0 mi WSW 9.2 mph - N/A   Clear
1:15 PM 44.6 °F 40.2 °F 26.6 °F 49% 30.19 in 10.0 mi WSW 8.1 mph - N/A   Clear
1:35 PM 44.6 °F 39.2 °F 24.8 °F 46% 30.18 in 10.0 mi WSW 10.4 mph 17.3 mph N/A   Clear
1:55 PM 46.4 °F 41.1 °F 23.0 °F 40% 30.17 in 10.0 mi WSW 11.5 mph - N/A   Clear
2:15 PM 46.4 °F 41.9 °F 24.8 °F 43% 30.16 in 10.0 mi WSW 9.2 mph - N/A   Clear
2:35 PM 46.4 °F 40.7 °F 24.8 °F 43% 30.15 in 10.0 mi West 12.7 mph - N/A   Clear
2:55 PM 46.4 °F 41.1 °F 23.0 °F 40% 30.15 in 10.0 mi WSW 11.5 mph 17.3 mph N/A   Clear
3:15 PM 46.4 °F 41.5 °F 23.0 °F 40% 30.14 in 10.0 mi WSW 10.4 mph - N/A   Clear
3:35 PM 46.4 °F 41.9 °F 24.8 °F 43% 30.13 in 10.0 mi West 9.2 mph - N/A   Clear
3:55 PM 46.4 °F 41.9 °F 23.0 °F 40% 30.13 in 10.0 mi WSW 9.2 mph - N/A   Clear
4:15 PM 44.6 °F 40.2 °F 23.0 °F 43% 30.13 in 10.0 mi West 8.1 mph - N/A   Clear
4:35 PM 44.6 °F 41.4 °F 23.0 °F 43% 30.12 in 10.0 mi WSW 5.8 mph - N/A   Clear
4:55 PM 42.8 °F 39.3 °F 23.0 °F 46% 30.12 in 10.0 mi West 5.8 mph - N/A   Clear
5:15 PM 42.8 °F 40.1 °F 23.0 °F 46% 30.12 in 10.0 mi West 4.6 mph - N/A   Clear
5:35 PM 42.8 °F 40.1 °F 23.0 °F 46% 30.12 in 10.0 mi WSW 4.6 mph - N/A   Clear
5:55 PM 41.0 °F - 24.8 °F 53% 30.12 in 10.0 mi Calm Calm - N/A   Clear
6:15 PM 41.0 °F 39.0 °F 24.8 °F 53% 30.12 in 10.0 mi West 3.5 mph - N/A   Clear
6:35 PM 41.0 °F 39.0 °F 24.8 °F 53% 30.12 in 10.0 mi West 3.5 mph - N/A   Clear
6:55 PM 41.0 °F - 24.8 °F 53% 30.12 in 10.0 mi Calm Calm - N/A   Clear
7:15 PM 41.0 °F - 24.8 °F 53% 30.12 in 10.0 mi Calm Calm - N/A   Clear
7:35 PM 41.0 °F - 24.8 °F 53% 30.11 in 10.0 mi Calm Calm - N/A   Clear
7:55 PM 39.2 °F 37.0 °F 26.6 °F 61% 30.10 in 10.0 mi SW 3.5 mph - N/A   Clear
8:15 PM 39.2 °F 37.0 °F 24.8 °F 56% 30.09 in 10.0 mi SSW 3.5 mph - N/A   Clear
8:35 PM 37.4 °F 34.9 °F 26.6 °F 65% 30.09 in 10.0 mi SSW 3.5 mph - N/A   Clear
8:55 PM 37.4 °F 34.9 °F 24.8 °F 60% 30.08 in 10.0 mi South 3.5 mph - N/A   Clear
9:15 PM 35.6 °F 31.7 °F 26.6 °F 70% 30.07 in 10.0 mi South 4.6 mph - N/A   Clear
9:35 PM 33.8 °F - 26.6 °F 75% 30.07 in 10.0 mi Calm Calm - N/A   Clear
9:55 PM 32.0 °F - 28.4 °F 87% 30.07 in 10.0 mi Calm Calm - N/A   Clear
10:15 PM 33.8 °F 30.8 °F 26.6 °F 75% 30.07 in 10.0 mi SSW 3.5 mph - N/A   Clear
10:35 PM 33.8 °F 29.6 °F 26.6 °F 75% 30.06 in 10.0 mi SSW 4.6 mph - N/A   Clear
10:55 PM 33.8 °F 28.6 °F 26.6 °F 75% 30.05 in 10.0 mi South 5.8 mph - N/A   Clear
11:15 PM 32.0 °F 28.7 °F 28.4 °F 87% 30.05 in 10.0 mi South 3.5 mph - N/A   Clear
11:35 PM 35.6 °F 30.7 °F 26.6 °F 70% 30.03 in 10.0 mi South 5.8 mph - N/A   Clear
11:55 PM 35.6 °F 30.7 °F 26.6 °F 70% 30.03 in 10.0 mi SSW 5.8 mph - N/A   Clear